Header for Extended Forecast Station List Page

Search by: ID | Name | Date | Parm | Value | Avg | % Avg
Sort by: ID | Name | Date | Parm | Value | Avg | % Avg

Enter search or view all records.

Click on id for station plot
#IDNameDateParmValueAvg% Avg
0BULO3BULLY CREEK-BULLY CREEK DAM11-28-2022INFLOW (KAF)184407
1RIDI1WILLOW CREEK-RIRIE DAM11-28-2022INFLOW (KAF)71448
2LWRI1LITTLE WOOD-LITTLE WOOD DAM11-28-2022INFLOW (KAF)81553
3HWRI1BIG LOST-AT HOWELL RANCH NEAR CHILLY11-28-2022DISCHARGE (KAF)171893
4DEDI1DEADWOOD-NEAR LOWMAN11-28-2022INFLOW (KAF)121963
5BERO3MALHEUR-AGENCY VALLEY DAM11-28-2022INFLOW (KAF)132356
6ARDW1ENTIAT-NEAR ARDENVOIR11-28-2022DISCHARGE (KAF)132652
7MAGI1BIG WOOD-MAGIC DAM11-28-2022INFLOW (KAF)242981
8HOTI1BRUNEAU-NEAR HOT SPRINGS11-28-2022DISCHARGE (KAF)133340
9MYKO3MCKAY CREEK-NEAR PILOT ROCK11-28-2022DISCHARGE (KAF)4035114
10MACI1BIG LOST-MACKAY RESERVOIR NEAR MACKAY11-28-2022INFLOW (KAF)313882
11HALI1BIG WOOD-AT HAILEY11-28-2022DISCHARGE (KAF)303880
12BUDW1BUMPING-BUMPING LAKE DAM11-28-2022INFLOW (KAF)153937
13WRMO3MALHEUR-WARM SPRINGS DAM11-28-2022INFLOW (KAF)174143
14RCCM8ROCK CREEK-NEAR CLINTON11-28-2022DISCHARGE (KAF)4846105
15STRM8ST. REGIS-NEAR ST. REGIS11-28-2022DISCHARGE (KAF)194739
16KADW1KACHESS-KACHESS DAM11-28-2022INFLOW (KAF)285156
17DLGM8CLARK FORK-AT DEER LODGE11-28-2022DISCHARGE (KAF)435284
18KEDW1YAKIMA-KEECHELUS LAKE11-28-2022INFLOW (KAF)295356
19PIHI1PORTNEUF-AT POCATELLO11-28-2022DISCHARGE (KAF)405572
20MILI1SNAKE-AT MILNER11-28-2022DISCHARGE (KAF)M55M
21GIBO3UMATILLA-NEAR GIBBON11-28-2022DISCHARGE (KAF)505591
22TNAW1TEANAWAY-BELOW FORKS11-28-2022DISCHARGE (KAF)275846
23BIGI1BOISE-AT GLENWOOD BRIDGE11-28-2022DISCHARGE (KAF)12765196
24SATI1ST MARIES-NEAR SANTA11-28-2022DISCHARGE (KAF)237232
25RILW1TIETON-RIMROCK LAKE NEAR RIMROCK11-28-2022INFLOW (KAF)427656
26EASW1YAKIMA-AT EASTON11-28-2022DISCHARGE (KAF)448154
27ARAI1SF BOISE-ANDERSON RANCH DAM11-28-2022INFLOW (KAF)658576
28TEAI1TETON-NEAR ST. ANTHONY11-28-2022DISCHARGE (KAF)719773
29IPDI1HENRYS FORK-ISLAND PARK DAM11-28-2022INFLOW (KAF)7810575
30CSDI1NF PAYETTE-CASCADE DAM11-28-2022INFLOW (KAF)5710555
31PATW1METHOW-NEAR PATEROS11-28-2022DISCHARGE (KAF)7310768
32CHEI1FALL RIVER-NEAR CHESTER11-28-2022DISCHARGE (KAF)10111390
33CLUW1CLE ELUM-CLE ELUM LAKE11-28-2022INFLOW (KAF)4911542
34JLKW4SNAKE-JACKSON LAKE AT DAM11-28-2022INFLOW (KAF)7911668
35DRMM8CLARK FORK-NR DRUMMOND11-28-2022DISCHARGE (KAF)11112688
36CLFW1NACHES-NEAR CLIFFDEL11-28-2022DISCHARGE (KAF)5413141
37UMAO3UMATILLA-NEAR UMATILLA11-28-2022DISCHARGE (KAF)11613486
38BONM8BLACKFOOT-NEAR BONNER11-28-2022DISCHARGE (KAF)11114079
39PDTO3UMATILLA-AT PENDLETON11-28-2022DISCHARGE (KAF)11914284
40LAUW1KETTLE-AT LAURIER11-28-2022DISCHARGE (KAF)6515043
41OWYO3OWYHEE-OWYHEE DAM11-28-2022INFLOW (KAF)13715489
42WGCM8MF FLATHEAD-NEAR WEST GLACIER11-28-2022DISCHARGE (KAF)4615929
43FCFM8NF FLATHEAD-NEAR COLUMBIA FALLS11-28-2022DISCHARGE (KAF)11517765
44NACW1NACHES-NEAR NACHES11-28-2022DISCHARGE (KAF)5317929
45LUCI1BOISE-LUCKY PEAK DAM11-28-2022INFLOW (KAF)16418987
46WSRI1WEISER-NEAR WEISER11-28-2022DISCHARGE (KAF)15918984
47TCHW1WALLA WALLA-NEAR TOUCHET11-28-2022DISCHARGE (KAF)17719690
48CHDW1CHELAN-LAKE CHELAN DAM11-28-2022INFLOW (KAF)6220231
49PARI1BOISE-NEAR PARMA11-28-2022DISCHARGE (KAF)267202132
50BITM8BITTERROOT-NEAR MISSOULA11-28-2022DISCHARGE (KAF)16021076
51MONO3NF JOHN DAY-AT MONUMENT11-28-2022DISCHARGE (KAF)13023156
52PRTI1PRIEST-NEAR PRIEST RIVER11-28-2022DISCHARGE (KAF)12423852
53HHWM8SF FLATHEAD-HUNGRY HORSE DAM11-28-2022INFLOW (KAF)12524851
54HODO3HOOD-NEAR TUCKER BRIDGE11-28-2022DISCHARGE (KAF)267248108
55UNDW1WHITE SALMON-NEAR UNDERWOOD11-28-2022DISCHARGE (KAF)22128478
56TONW1OKANOGAN-NEAR TONASKET11-28-2022DISCHARGE (KAF)19131261
57JKSW4SNAKE-NEAR JACKSON11-28-2022DISCHARGE (KAF)24231577
58ABOM8CLARK FORK-ABOVE MISSOULA11-28-2022DISCHARGE (KAF)28233584
59PESW1WENATCHEE-AT PESHASTIN11-28-2022DISCHARGE (KAF)13633840
60UMTW1YAKIMA-AT UMTANUM11-28-2022DISCHARGE (KAF)20334160
61EMMI1PAYETTE-NEAR EMMETT11-28-2022DISCHARGE (KAF)29236081
62SERO3JOHN DAY-AT SERVICE CK11-28-2022DISCHARGE (KAF)20836457
63PITW1KLICKITAT-NEAR PITT11-28-2022DISCHARGE (KAF)31837286
64ALPW4SNAKE-NEAR ALPINE11-28-2022DISCHARGE (KAF)29137578
65ANTI1HENRYS FORK-AT ST. ANTHONY11-28-2022DISCHARGE (KAF)30138079
66HEII1SNAKE-NEAR HEISE11-28-2022DISCHARGE (KAF)496383129
67REXI1HENRYS FORK-AT REXBURG11-28-2022DISCHARGE (KAF)35043680
68TRYO3GRANDE RONDE-TROY11-28-2022DISCHARGE (KAF)28550357
69BELM8CLARK FORK-BELOW MISSOULA11-28-2022DISCHARGE (KAF)44355680
70PARW1YAKIMA-NEAR PARKER11-28-2022DISCHARGE (KAF)34657760
71BFTI1SNAKE-NEAR BLACKFOOT11-28-2022DISCHARGE (KAF)588582101
72PLDI1SF SNAKE-PALISADES DAM11-28-2022INFLOW (KAF)46758380
73SNAI1SNAKE-AT BLACKFOOT11-28-2022DISCHARGE (KAF)58659499
74SIFI1SNAKE-AB EAGLE ROCK NR IDAHO FALLS11-28-2022DISCHARGE (KAF)67167599
75SHYI1SNAKE-NEAR SHELLEY11-28-2022DISCHARGE (KAF)65167996
76SRGM8CLARK FORK-AT ST REGIS11-28-2022DISCHARGE (KAF)54674773
77DWRI1NF CLEARWATER-DWORSHAK DAM11-28-2022INFLOW (KAF)45579957
78KIOW1YAKIMA-AT KIONA11-28-2022DISCHARGE (KAF)47282957
79LYDM8KOOTENAI-LIBBY DAM11-28-2022INFLOW (KAF)61183373
80CFMM8FLATHEAD-AT COLUMBIA FALLS11-28-2022DISCHARGE (KAF)83995388
81ORFI1CLEARWATER-AT OROFINO11-28-2022DISCHARGE (KAF)417100242
82WHBI1SALMON-AT WHITEBIRD11-28-2022DISCHARGE (KAF)846107079
83AFRI1SNAKE-AMERICAN FALLS RESERVOIR11-28-2022INFLOW (KAF)12041203100
84COEI1COEUR D ALENE-COEUR D ALENE LAKE11-28-2022INFLOW (KAF)670120656
85SPOW1SPOKANE-AT SPOKANE11-28-2022DISCHARGE (KAF)609131446
86KERM8FLATHEAD-SELI’Š KSANKA QLISPE’ DAM11-28-2022INFLOW (KAF)939141266
87MODO3DESCHUTES-AT MOODY NR BIGGS11-28-2022DISCHARGE (KAF)991141570
88LLKW1SPOKANE-AT LONGLAKE11-28-2022INFLOW (KAF)879158356
89SWAI1SNAKE-BELOW SWAN FALLS11-28-2022DISCHARGE (KAF)1727187892
90SPDI1CLEARWATER-AT SPALDING11-28-2022DISCHARGE (KAF)1040188455
91LEOI1KOOTENAI-AT LEONIA11-28-2022DISCHARGE (KAF)2045240385
92WEII1SNAKE-AT WEISER11-28-2022DISCHARGE (KAF)2737298092
93NOXM8CLARK FORK-NOXON RAPIDS DAM11-28-2022INFLOW (KAF)2421312777
94BRNI1SNAKE-BROWNLEE DAM11-28-2022INFLOW (KAF)2975321293
95CABI1CLARK FORK-CABINET GORGE DAM11-28-2022INFLOW (KAF)2673357575
96ALFW1PEND OREILLE-ALBENI FALLS DAM11-28-2022INFLOW (KAF)2965405373
97ANAW1SNAKE-NEAR ANATONE11-28-2022DISCHARGE (KAF)4157554775
98LGDW1SNAKE-LOWER GRANITE DAM11-28-2022INFLOW (KAF)5188752069
99LGSW1SNAKE-LITTLE GOOSE DAM11-28-2022INFLOW (KAF)5187755669
100LMNW1SNAKE-LOWER MONUMENTAL DAM11-28-2022INFLOW (KAF)5615768673
101IHDW1SNAKE-ICE HARBOR DAM11-28-2022INFLOW (KAF)5615771673
102CIBW1COLUMBIA-AT INTL BOUNDARY11-28-2022DISCHARGE (KAF)162261992381
103GCDW1COLUMBIA-GRAND COULEE DAM11-28-2022INFLOW (KAF)172262169679
104CHJW1COLUMBIA-CHIEF JOSEPH DAM11-28-2022INFLOW (KAF)201962386185
105WELW1COLUMBIA-WELLS DAM11-28-2022INFLOW (KAF)204452450783
106RRHW1COLUMBIA-ROCKY REACH DAM11-28-2022INFLOW (KAF)207212489983
107WANW1COLUMBIA-WANAPUM DAM11-28-2022INFLOW (KAF)208672552282
108PRWW1COLUMBIA-PRIEST RAPIDS DAM11-28-2022INFLOW (KAF)208672559482
109MCDW1COLUMBIA-MCNARY DAM11-28-2022INFLOW (KAF)270923444279
110JDAO3COLUMBIA-JOHN DAY DAM11-28-2022INFLOW (KAF)286083612479
111TDAO3COLUMBIA-THE DALLES DAM11-28-2022INFLOW (KAF)287883674778
112BONO3COLUMBIA-BONNEVILLE DAM11-28-2022INFLOW (KAF)295753849777
113BFEI1KOOTENAI-AT BONNERS FERRY11-28-2022STAGE (FT)MMM
114HOPI1PEND OREILLE-PEND OREILLE LAKE NR HOPE11-28-2022LAKE ELEVATION (FT)MMM
115SJMI1ST JOE-AT ST MARIES11-28-2022STAGE (FT)MMM